Volver al catálogo

IPoS-TDsM

ActivoSSO
NORAD 69913·PAYLOAD·🇺🇸 United States

Lanzado Jul 7, 2026 desde Vandenberg Space Force Base

Loading…

Próximos Pases (próximas 24 horas)

TLE

ActualizadoSource: Space-Track

Época: Sep 14, 2026, 11:14 UTC

1 69913U 26156AW  26257.46815541  .00001230  00000-0  12990-3 0  9994
2 69913  97.7500 156.7167 0001356 306.1487  53.9605 14.91022171 10305

Sigue IPoS-TDsM en tiempo real con AllMySat

Download on the App Store